Simultaneous Nadir Overpasses (SNOs) Predictions

Prediction of SNOs between GOES-16 and TERRA Satellite Orbit:

Table of predicted SNOs for the next 14.0 days since TLE Epoch: 10/17/2025
Index Date Time (GOES-16) GOES-16 Lat,Lon TERRA Lat,Lon Distance(km) Time Diff (sec)
1 10/18/2025 04:14:13 -0.05,-104.66 -0.18,-105.23 65.10 80
2 10/20/2025 03:52:07 -0.06,-104.66 0.78,-100.55 466.74 80
3 10/20/2025 16:11:32 0.06,-104.72 0.16,-105.28 63.59 80
4 10/22/2025 15:54:45 0.06,-104.73 -0.77,-100.60 468.56 80
5 10/23/2025 04:14:17 -0.06,-104.67 -0.18,-105.36 77.55 80
6 10/25/2025 03:52:10 -0.07,-104.67 0.78,-100.67 454.39 80
7 10/25/2025 16:11:33 0.07,-104.72 0.21,-105.39 76.24 80
8 10/27/2025 15:54:47 0.08,-104.72 -0.78,-100.71 455.82 80
9 10/28/2025 04:14:17 -0.08,-104.66 -0.22,-105.46 90.05 80
10 10/30/2025 03:52:09 -0.09,-104.66 0.74,-100.77 442.10 80
11 10/30/2025 16:11:33 0.08,-104.71 0.24,-105.49 88.72 80
